Zurück zum Katalog

CZ-6A DEB

AktivSSO
NORAD 54414·DEBRIS·🇨🇳 China

Gestartet Nov 11, 2022 von Taiyuan Satellite Launch Center

Loading…

Nächste Überflüge (nächste 24 Stunden)

TLE

AktuellSource: Space-Track

Epoche: Sep 14, 2026, 21:14 UTC

1 54414U 22151EN  26257.88483738 -.00000407  00000-0 -24657-3 0  9990
2 54414  98.9659 233.8660 0116774 180.9795 179.1157 13.96973428195232

Verfolge CZ-6A DEB in Echtzeit mit AllMySat

Download on the App Store